Location: Bois de la Silve
(44.4667°N, 6.7833°E)
Time: 10:25:08
(UTC+00:00)

Cosmos 1725 Rocket - Pass Details

Date: 14 July 2020
Orbit: 963 x 989 km, 82.9° (Epoch: 05 August)

Event Time Altitude Azimuth Distance (km) Brightness Sun altitude
Exits shadow 01:21:05 29° 173° (S) 1,696 4.8 -19.9°
Maximum altitude 01:24:25 73° 95° (E) 1,016 4.1 -19.6°
Drops below altitude 10° 01:30:39 10° 12° (NNE) 2,734 7.5 -19.1°
Sets 01:33:11 0° 10° (N) 3,690 8.4 -18.9°
